When you browse on this site, cookies collect data to enhance your experience and personalize the content and advertising you see.
Visit our Privacy Policy to learn more. By continuing to use the site, you agree to this use of cookies and data.
  • In Spain
  • List of Countries
  • For 7 days
  • Water Temperature
  • Satellite Maps
  • Weather Map
  • Weather Widgets
  • user-avatar
    Login

    Hourly Weather Ganja

    Today, 16 December, Sunday

    Time Temperature Precipitation Wind Pressure Humidity
    00:00 +6°C° 0 mm 1 mps 731 mmHg 58%
    01:00 +6°C° 0 mm 1 mps 731 mmHg 58%
    02:00 +5°C° 0 mm 2 mps 731 mmHg 58%
    03:00 +5°C° 0 mm 2 mps 731 mmHg 58%
    04:00 +5°C° 0 mm 2 mps 731 mmHg 58%
    05:00 +5°C° 0 mm 2 mps 731 mmHg 58%
    06:00 +4°C° 0 mm 3 mps 730 mmHg 59%
    07:00 +6°C° 0 mm 2 mps 731 mmHg 56%
    08:00 +7°C° 0 mm 2 mps 731 mmHg 54%
    09:00 +7°C° 0 mm 2 mps 731 mmHg 52%
    10:00 +9°C° 0 mm 2 mps 730 mmHg 50%
    11:00 +10°C° 0 mm 2 mps 730 mmHg 47%
    12:00 +12°C° 0 mm 2 mps 730 mmHg 45%
    13:00 +12°C° 0 mm 2 mps 730 mmHg 45%
    14:00 +12°C° 0 mm 1 mps 730 mmHg 46%
    15:00 +12°C° 0 mm 1 mps 730 mmHg 47%
    16:00 +11°C° 0 mm 1 mps 730 mmHg 51%
    17:00 +9°C° 0 mm 2 mps 731 mmHg 55%
    18:00 +7°C° 0 mm 2 mps 731 mmHg 59%
    19:00 +7°C° 0 mm 2 mps 731 mmHg 60%
    20:00 +7°C° 0 mm 2 mps 731 mmHg 61%
    21:00 +5°C° 0 mm 3 mps 731 mmHg 62%
    22:00 +5°C° 0 mm 3 mps 731 mmHg 65%
    23:00 +5°C° 0 mm 3 mps 731 mmHg 69%

    Tomorrow, 17 December, Monday

    Time Temperature Precipitation Wind Pressure Humidity
    00:00 +5°C° 0 mm 2 mps 731 mmHg 72%
    01:00 +5°C° 0 mm 2 mps 731 mmHg 76%
    02:00 +5°C° 0 mm 2 mps 731 mmHg 80%
    03:00 +4°C° 0 mm 2 mps 732 mmHg 83%
    04:00 +5°C° 0 mm 1 mps 731 mmHg 84%
    05:00 +5°C° 0 mm 1 mps 731 mmHg 85%
    06:00 +5°C° 0 mm 1 mps 731 mmHg 86%
    07:00 +5°C° 0 mm 1 mps 731 mmHg 85%
    08:00 +6°C° 0 mm 1 mps 731 mmHg 83%
    09:00 +6°C° 0 mm 1 mps 731 mmHg 82%
    10:00 +5°C° 0 mm 2 mps 731 mmHg 81%
    11:00 +6°C° 0 mm 2 mps 730 mmHg 80%
    12:00 +6°C° 0 mm 2 mps 729 mmHg 79%
    13:00 +6°C° 0 mm 2 mps 729 mmHg 80%
    14:00 +6°C° 0 mm 2 mps 729 mmHg 80%
    15:00 +6°C° 0 mm 2 mps 729 mmHg 81%
    16:00 +6°C° 0 mm 2 mps 729 mmHg 84%
    17:00 +5°C° 0 mm 2 mps 729 mmHg 87%
    18:00 +5°C° 0 mm 2 mps 729 mmHg 90%
    19:00 +5°C° 0.1 mm 2 mps 729 mmHg 91%
    20:00 +5°C° 0.1 mm 2 mps 729 mmHg 91%
    21:00 +4°C° 0.1 mm 2 mps 729 mmHg 92%
    22:00 +4°C° 0.4 mm 2 mps 729 mmHg 92%
    23:00 +4°C° 0.4 mm 2 mps 729 mmHg 93%

    Day after tomorrow, 18 December, Tuesday

    Time Temperature Precipitation Wind Pressure Humidity
    00:00 +5°C° 0.4 mm 1 mps 729 mmHg 93%
    01:00 +5°C° 0.4 mm 1 mps 729 mmHg 94%
    02:00 +5°C° 0.4 mm 1 mps 729 mmHg 94%
    03:00 +5°C° 0.4 mm 1 mps 729 mmHg 94%
    04:00 +5°C° 0.5 mm 1 mps 729 mmHg 94%
    05:00 +4°C° 0.5 mm 0 mps 729 mmHg 94%
    06:00 +4°C° 0.5 mm 0 mps 728 mmHg 94%
    07:00 +4°C° 0.4 mm 0 mps 729 mmHg 93%
    08:00 +4°C° 0.4 mm 0 mps 729 mmHg 92%
    09:00 +4°C° 0.4 mm 0 mps 729 mmHg 91%
    10:00 +6°C° 0.3 mm 1 mps 729 mmHg 90%
    11:00 +6°C° 0.3 mm 1 mps 729 mmHg 89%
    12:00 +6°C° 0.3 mm 1 mps 729 mmHg 88%
    13:00 +6°C° 0.1 mm 1 mps 729 mmHg 88%
    14:00 +7°C° 0.1 mm 1 mps 729 mmHg 87%
    15:00 +7°C° 0.1 mm 1 mps 729 mmHg 86%
    16:00 +6°C° 0 mm 1 mps 729 mmHg 88%
    17:00 +6°C° 0 mm 1 mps 730 mmHg 90%
    18:00 +5°C° 0 mm 1 mps 730 mmHg 92%
    19:00 +5°C° 0 mm 1 mps 730 mmHg 91%
    20:00 +5°C° 0 mm 1 mps 731 mmHg 91%
    21:00 +5°C° 0 mm 1 mps 731 mmHg 91%
    22:00 +5°C° 0 mm 1 mps 731 mmHg 91%
    23:00 +4°C° 0 mm 1 mps 731 mmHg 90%

    19 December, Wednesday

    Time Temperature Precipitation Wind Pressure Humidity
    00:00 +4°C° 0 mm 1 mps 731 mmHg 90%
    01:00 +4°C° 0 mm 1 mps 731 mmHg 90%
    02:00 +4°C° 0 mm 1 mps 731 mmHg 90%
    03:00 +3°C° 0 mm 0 mps 731 mmHg 89%
    04:00 +3°C° 0 mm 0 mps 731 mmHg 89%
    05:00 +4°C° 0 mm 1 mps 731 mmHg 89%
    06:00 +4°C° 0 mm 1 mps 731 mmHg 89%
    07:00 +4°C° 0 mm 1 mps 731 mmHg 87%
    08:00 +4°C° 0 mm 0 mps 731 mmHg 86%
    09:00 +4°C° 0 mm 0 mps 732 mmHg 84%
    10:00 +6°C° 0 mm 1 mps 731 mmHg 83%
    11:00 +7°C° 0 mm 1 mps 731 mmHg 82%
    12:00 +7°C° 0 mm 1 mps 730 mmHg 80%
    13:00 +7°C° 0 mm 1 mps 730 mmHg 80%
    14:00 +7°C° 0 mm 1 mps 730 mmHg 80%
    15:00 +8°C° 0 mm 1 mps 730 mmHg 79%
    16:00 +7°C° 0 mm 1 mps 730 mmHg 82%
    17:00 +6°C° 0 mm 1 mps 730 mmHg 85%
    18:00 +5°C° 0 mm 1 mps 730 mmHg 88%
    19:00 +5°C° 0 mm 1 mps 730 mmHg 88%
    20:00 +5°C° 0 mm 1 mps 730 mmHg 88%
    21:00 +5°C° 0 mm 1 mps 730 mmHg 89%
    22:00 +5°C° 0 mm 1 mps 730 mmHg 89%
    23:00 +5°C° 0 mm 1 mps 730 mmHg 89%

    20 December, Thursday

    Time Temperature Precipitation Wind Pressure Humidity
    00:00 +4°C° 0 mm 0 mps 730 mmHg 89%
    01:00 +4°C° 0 mm 0 mps 729 mmHg 89%
    02:00 +5°C° 0 mm 1 mps 729 mmHg 89%
    03:00 +5°C° 0 mm 1 mps 729 mmHg 89%
    04:00 +4°C° 0 mm 1 mps 728 mmHg 88%
    05:00 +4°C° 0 mm 1 mps 728 mmHg 87%
    06:00 +4°C° 0 mm 1 mps 728 mmHg 86%
    07:00 +5°C° 0 mm 1 mps 728 mmHg 84%
    08:00 +5°C° 0 mm 1 mps 728 mmHg 81%
    09:00 +6°C° 0 mm 1 mps 727 mmHg 79%
    10:00 +7°C° 0 mm 1 mps 727 mmHg 74%
    11:00 +8°C° 0 mm 1 mps 726 mmHg 70%
    12:00 +8°C° 0 mm 2 mps 726 mmHg 65%
    13:00 +8°C° 0 mm 2 mps 726 mmHg 65%
    14:00 +9°C° 0 mm 1 mps 725 mmHg 64%
    15:00 +9°C° 0 mm 1 mps 725 mmHg 64%
    16:00 +9°C° 0 mm 1 mps 725 mmHg 67%
    17:00 +8°C° 0 mm 1 mps 726 mmHg 69%
    18:00 +7°C° 0 mm 1 mps 726 mmHg 72%
    19:00 +7°C° 0 mm 1 mps 726 mmHg 73%
    20:00 +7°C° 0 mm 1 mps 726 mmHg 73%
    21:00 +7°C° 0 mm 1 mps 726 mmHg 74%
    22:00 +7°C° 0.1 mm 1 mps 727 mmHg 75%
    23:00 +7°C° 0.1 mm 1 mps 727 mmHg 76%

    21 December, Friday

    Time Temperature Precipitation Wind Pressure Humidity
    00:00 +6°C° 0.1 mm 2 mps 727 mmHg 77%
    01:00 +6°C° 0.1 mm 2 mps 727 mmHg 77%
    02:00 +6°C° 0.1 mm 2 mps 727 mmHg 78%
    03:00 +6°C° 0.1 mm 2 mps 728 mmHg 78%
    04:00 +6°C° 0 mm 2 mps 728 mmHg 78%
    05:00 +6°C° 0 mm 2 mps 728 mmHg 78%
    06:00 +6°C° 0 mm 2 mps 728 mmHg 78%
    07:00 +6°C° 0 mm 2 mps 729 mmHg 76%
    08:00 +7°C° 0 mm 2 mps 729 mmHg 75%
    09:00 +7°C° 0 mm 2 mps 729 mmHg 73%
    10:00 +8°C° 0.1 mm 2 mps 729 mmHg 71%
    11:00 +8°C° 0.1 mm 2 mps 729 mmHg 69%
    12:00 +9°C° 0.1 mm 3 mps 729 mmHg 67%
    13:00 +9°C° 0.1 mm 3 mps 729 mmHg 67%
    14:00 +9°C° 0.1 mm 3 mps 729 mmHg 67%
    15:00 +9°C° 0.1 mm 2 mps 729 mmHg 67%
    16:00 +8°C° 0.1 mm 2 mps 729 mmHg 70%
    17:00 +8°C° 0.1 mm 1 mps 730 mmHg 73%
    18:00 +8°C° 0.1 mm 1 mps 730 mmHg 77%
    19:00 +7°C° 0.1 mm 1 mps 730 mmHg 77%
    20:00 +7°C° 0.1 mm 1 mps 730 mmHg 78%
    21:00 +7°C° 0.1 mm 1 mps 730 mmHg 79%
    22:00 +7°C° 0 mm 1 mps 730 mmHg 80%
    23:00 +6°C° 0 mm 1 mps 730 mmHg 81%
    Show more